User: anonymous   Login
Location: Unspecified
(0.0000°N, 0.0000°E)
Time: 09:11:51
(UTC+00:00)
Language:

UME 1 - Orbit

View from above orbital plane
View from above orbital plane
View from above satellite
View from above satellite

Ground track
Ground track

The orbit data is extracted from the following two-line orbital elements,

1  8709U 76019A   17086.90569803 +.00000037 +00000-0 +98504-4 0  9999
2  8709 069.6743 313.6079 0011441 336.3707 109.3904 13.71383796055510
Epoch (UTC): 27 March 2017 21:44:12
Eccentricity: 0.0011441
inclination: 69.6743°
perigee height: 986 km
apogee height: 1003 km
right ascension of ascending node: 313.6079°
argument of perigee: 336.3707°
revolutions per day: 13.71383796
mean anomaly at epoch: 109.3904°
orbit number at epoch: 5551

The dashed part of the orbit path shows where the satellite is in the earth's shadow,  

DLR